,,Stat5,,Stat1,,Stat2,,Stat3,,Stat4,,Wind1,,Wind1,
time,status,PA1M_AVG,status,PR1M_SUM,status,RH1M_AVG,status,SR1M_AVG,status,TA1M_AVG,status,W1dAve1m,status,W1sAve1m,
2003-01-14, 00:00:00,VALID,919.776,VALID,0,VALID,98.3624,VALID,-0.0169808,VALID,20.4442,VALID,82,VALID,0.152444,
2003-01-14, 00:01:00,VALID,919.772,VALID,0,VALID,98.309,VALID,-0.0339617,VALID,20.4569,VALID,82,VALID,0.00260417,
2003-01-14, 00:02:00,VALID,919.783,VALID,0,VALID,98.2887,VALID,-0.0169808,VALID,20.4795,VALID,82,VALID,0,
2003-01-14, 00:03:00,VALID,919.767,VALID,0,VALID,98.192,VALID,0,VALID,20.5024,VALID,82,VALID,0,
2003-01-14, 00:04:00,VALID,919.756,VALID,0,VALID,98.103,VALID,-0.0679233,VALID,20.5088,VALID,82,VALID,0,
2003-01-14, 00:05:00,VALID,919.75,VALID,0,VALID,97.9174,VALID,-0.0339617,VALID,20.519,VALID,82,VALID,0,
2003-01-14, 00:06:00,VALID,919.75,VALID,0,VALID,97.5651,VALID,0.0169808,VALID,20.466,VALID,82,VALID,0,
2003-01-14, 00:07:00,VALID,919.739,VALID,0,VALID,97.1735,VALID,0,VALID,20.4377,VALID,82,VALID,0,
2003-01-14, 00:08:00,VALID,919.732,VALID,0,VALID,96.8009,VALID,0,VALID,20.3793,VALID,82,VALID,0,
2003-01-14, 00:09:00,VALID,919.729,VALID,0,VALID,96.5466,VALID,0,VALID,20.3306,VALID,82,VALID,0,
2003-01-14, 00:10:00,VALID,919.721,VALID,0,VALID,96.4398,VALID,0,VALID,20.2823,VALID,82,VALID,0,
2003-01-14, 00:11:00,VALID,919.723,VALID,0,VALID,96.427,VALID,-0.0339617,VALID,20.2535,VALID,82,VALID,0.0345395,
2003-01-14, 00:12:00,VALID,919.698,VALID,0,VALID,96.8479,VALID,0,VALID,20.2433,VALID,56,VALID,0.0831163,
2003-01-14, 00:13:00,VALID,919.698,VALID,0,VALID,97.0361,VALID,-0.0169808,VALID,20.2627,VALID,50,VALID,0.0240709,
2003-01-14, 00:14:00,VALID,919.692,VALID,0,VALID,97.3159,VALID,0,VALID,20.3017,VALID,48,VALID,0.249383,
2003-01-14, 00:15:00,VALID,919.679,VALID,0,VALID,97.4431,VALID,0,VALID,20.3141,VALID,40,VALID,0.131123,
2003-01-14, 00:16:00,VALID,919.684,VALID,0,VALID,97.6096,VALID,0.0339617,VALID,20.3271,VALID,40,VALID,0.00360577,
2003-01-14, 00:17:00,VALID,919.687,VALID,0,VALID,97.6287,VALID,0,VALID,20.3114,VALID,39,VALID,0.134291,
2003-01-14, 00:18:00,VALID,919.688,VALID,0,VALID,97.7177,VALID,0.0169808,VALID,20.298,VALID,355,VALID,0.414485,
2003-01-14, 00:19:00,VALID,919.686,VALID,0,VALID,97.8589,VALID,-0.0169808,VALID,20.302,VALID,346,VALID,0.281473,
2003-01-14, 00:20:00,VALID,919.684,VALID,0,VALID,98.0038,VALID,-0.0169808,VALID,20.2948,VALID,345,VALID,0.30701,
2003-01-14, 00:21:00,VALID,919.672,VALID,0,VALID,98.1908,VALID,0.0169808,VALID,20.3136,VALID,339,VALID,0.237179,
2003-01-14, 00:22:00,VALID,919.662,VALID,0,VALID,98.3256,VALID,0,VALID,20.3502,VALID,339,VALID,0.0821429,
2003-01-14, 00:23:00,VALID,919.65,VALID,0,VALID,98.4069,VALID,0,VALID,20.3599,VALID,339,VALID,0.213682,
2003-01-14, 00:24:00,VALID,919.629,VALID,0,VALID,98.4718,VALID,-0.0169808,VALID,20.3659,VALID,339,VALID,0,
2003-01-14, 00:25:00,VALID,919.604,VALID,0,VALID,98.4972,VALID,-0.0169808,VALID,20.3828,VALID,339,VALID,0,
2003-01-14, 00:26:00,VALID,919.603,VALID,0,VALID,98.543,VALID,0,VALID,20.3992,VALID,339,VALID,0,
2003-01-14, 00:27:00,VALID,919.579,VALID,0,VALID,98.5405,VALID,-0.0339617,VALID,20.3828,VALID,339,VALID,0.0266426,
2003-01-14, 00:28:00,VALID,919.577,VALID,0,VALID,98.5366,VALID,0,VALID,20.3763,VALID,339,VALID,0.0217014,
2003-01-14, 00:29:00,VALID,919.578,VALID,0,VALID,98.5506,VALID,-0.0169808,VALID,20.3835,VALID,339,VALID,0,
2003-01-14, 00:30:00,VALID,919.569,VALID,0,VALID,98.6117,VALID,-0.0169808,VALID,20.3892,VALID,339,VALID,0,
2003-01-14, 00:31:00,VALID,919.559,VALID,0,VALID,98.6117,VALID,0,VALID,20.3887,VALID,339,VALID,0,
2003-01-14, 00:32:00,VALID,919.556,VALID,0,VALID,98.6346,VALID,-0.0169808,VALID,20.389,VALID,339,VALID,0,
2003-01-14, 00:33:00,VALID,919.544,VALID,0,VALID,98.6371,VALID,0,VALID,20.3952,VALID,339,VALID,0,
2003-01-14, 00:34:00,VALID,919.545,VALID,0,VALID,98.6295,VALID,0,VALID,20.4146,VALID,339,VALID,0,
2003-01-14, 00:35:00,VALID,919.538,VALID,0,VALID,98.5697,VALID,0,VALID,20.4248,VALID,339,VALID,0,
2003-01-14, 00:36:00,VALID,919.523,VALID,0,VALID,98.5392,VALID,-0.0169808,VALID,20.4116,VALID,339,VALID,0,
2003-01-14, 00:37:00,VALID,919.511,VALID,0,VALID,98.454,VALID,0,VALID,20.4086,VALID,339,VALID,0,
2003-01-14, 00:38:00,VALID,919.491,VALID,0,VALID,98.3167,VALID,-0.0169808,VALID,20.3763,VALID,339,VALID,0,
2003-01-14, 00:39:00,VALID,919.495,VALID,0,VALID,98.2404,VALID,-0.0169808,VALID,20.3569,VALID,339,VALID,0,
2003-01-14, 00:40:00,VALID,919.471,VALID,0,VALID,98.1615,VALID,-0.0339617,VALID,20.3567,VALID,339,VALID,0,
2003-01-14, 00:41:00,VALID,919.465,VALID,0,VALID,98.0661,VALID,0,VALID,20.3373,VALID,339,VALID,0,
2003-01-14, 00:42:00,VALID,919.453,VALID,0,VALID,97.9987,VALID,-0.0679233,VALID,20.3348,VALID,339,VALID,0,
2003-01-14, 00:43:00,VALID,919.457,VALID,0,VALID,97.8894,VALID,-0.0509425,VALID,20.3214,VALID,339,VALID,0,
2003-01-14, 00:44:00,VALID,919.435,VALID,0,VALID,97.7343,VALID,-0.0169808,VALID,20.3087,VALID,339,VALID,0,
2003-01-14, 00:45:00,VALID,919.423,VALID,0,VALID,97.63,VALID,-0.0169808,VALID,20.2692,VALID,339,VALID,0,
2003-01-14, 00:46:00,VALID,919.424,VALID,0,VALID,97.4647,VALID,-0.0679233,VALID,20.257,VALID,339,VALID,0,
2003-01-14, 00:47:00,VALID,919.415,VALID,0,VALID,97.4342,VALID,-0.0169808,VALID,20.2406,VALID,339,VALID,0,
2003-01-14, 00:48:00,VALID,919.397,VALID,0,VALID,97.5448,VALID,-0.0339617,VALID,20.254,VALID,339,VALID,0,
2003-01-14, 00:49:00,VALID,919.381,VALID,0,VALID,97.7648,VALID,-0.0339617,VALID,20.2863,VALID,339,VALID,0,
2003-01-14, 00:50:00,VALID,919.371,VALID,0,VALID,97.9708,VALID,0,VALID,20.3246,VALID,339,VALID,0,
2003-01-14, 00:51:00,VALID,919.368,VALID,0,VALID,98.0407,VALID,-0.0169808,VALID,20.3639,VALID,339,VALID,0,
2003-01-14, 00:52:00,VALID,919.372,VALID,0,VALID,97.8907,VALID,-0.0169808,VALID,20.354,VALID,339,VALID,0.00347222,
2003-01-14, 00:53:00,VALID,919.379,VALID,0,VALID,97.7788,VALID,0,VALID,20.3338,VALID,339,VALID,0.00190034,
2003-01-14, 00:54:00,VALID,919.376,VALID,0,VALID,97.7775,VALID,0.0849042,VALID,20.3067,VALID,339,VALID,0,
2003-01-14, 00:55:00,VALID,919.39,VALID,0,VALID,97.7292,VALID,0.0679233,VALID,20.3037,VALID,339,VALID,0.00105574,
2003-01-14, 00:56:00,VALID,919.391,VALID,0,VALID,97.747,VALID,0.0679233,VALID,20.3034,VALID,339,VALID,0.0540865,
2003-01-14, 00:57:00,VALID,919.4,VALID,0,VALID,97.7902,VALID,0.0679233,VALID,20.3037,VALID,339,VALID,0,
2003-01-14, 00:58:00,VALID,919.397,VALID,0,VALID,97.7393,VALID,0.0849042,VALID,20.2873,VALID,339,VALID,0,
2003-01-14, 00:59:00,VALID,919.393,VALID,0,VALID,97.6986,VALID,0.0849042,VALID,20.2806,VALID,344,VALID,0.0473214,
2003-01-14, 01:00:00,VALID,919.38,VALID,0,VALID,97.7749,VALID,0.0509425,VALID,20.2749,VALID,108,VALID,0.449958,
2003-01-14, 01:01:00,VALID,919.37,VALID,0,VALID,97.8754,VALID,0.0509425,VALID,20.2813,VALID,146,VALID,0.529447,
2003-01-14, 01:02:00,VALID,919.372,VALID,0,VALID,97.9326,VALID,0.0849042,VALID,20.2776,VALID,146,VALID,0.391741,
2003-01-14, 01:03:00,VALID,919.371,VALID,0,VALID,98.0229,VALID,0.0679233,VALID,20.2776,VALID,141,VALID,0.332559,
2003-01-14, 01:04:00,VALID,919.364,VALID,0,VALID,98.0992,VALID,0.0509425,VALID,20.2808,VALID,132,VALID,0.186632,
2003-01-14, 01:05:00,VALID,919.378,VALID,0,VALID,98.1374,VALID,0.0679233,VALID,20.2972,VALID,116,VALID,0.383398,
2003-01-14, 01:06:00,VALID,919.378,VALID,0,VALID,98.1437,VALID,0.0849042,VALID,20.2908,VALID,97,VALID,0.435897,
2003-01-14, 01:07:00,VALID,919.374,VALID,0,VALID,98.1564,VALID,0.0509425,VALID,20.2843,VALID,112,VALID,0.570313,
2003-01-14, 01:08:00,VALID,919.369,VALID,0,VALID,98.1997,VALID,0.0509425,VALID,20.2913,VALID,124,VALID,0.597222,
2003-01-14, 01:09:00,VALID,919.353,VALID,0,VALID,98.2505,VALID,0.0509425,VALID,20.2913,VALID,124,VALID,0.445735,
2003-01-14, 01:10:00,VALID,919.341,VALID,0,VALID,98.3294,VALID,0.0679233,VALID,20.2908,VALID,123,VALID,0,
2003-01-14, 01:11:00,VALID,919.327,VALID,0,VALID,98.3624,VALID,0.0679233,VALID,20.3069,VALID,123,VALID,0.280428,
2003-01-14, 01:12:00,VALID,919.316,VALID,0,VALID,98.3828,VALID,0.0509425,VALID,20.3131,VALID,123,VALID,0,
2003-01-14, 01:13:00,VALID,919.312,VALID,0,VALID,98.4438,VALID,0.0679233,VALID,20.3323,VALID,123,VALID,0,
2003-01-14, 01:14:00,VALID,919.305,VALID,0,VALID,98.4616,VALID,0.0849042,VALID,20.3551,VALID,123,VALID,0,
2003-01-14, 01:15:00,VALID,919.304,VALID,0,VALID,98.4565,VALID,0.0339617,VALID,20.3783,VALID,123,VALID,0.019848,
2003-01-14, 01:16:00,VALID,919.296,VALID,0,VALID,98.4044,VALID,0.0169808,VALID,20.3815,VALID,122,VALID,0,
2003-01-14, 01:17:00,VALID,919.291,VALID,0,VALID,98.3344,VALID,0.0339617,VALID,20.3874,VALID,122,VALID,0,
2003-01-14, 01:18:00,VALID,919.281,VALID,0,VALID,98.2747,VALID,0.0679233,VALID,20.4041,VALID,122,VALID,0.0135135,
2003-01-14, 01:19:00,VALID,919.272,VALID,0,VALID,98.2137,VALID,0.0849042,VALID,20.4235,VALID,122,VALID,0,
2003-01-14, 01:20:00,VALID,919.276,VALID,0,VALID,98.0687,VALID,0.0509425,VALID,20.4362,VALID,122,VALID,0,
2003-01-14, 01:21:00,VALID,919.258,VALID,0,VALID,97.9097,VALID,0.0849042,VALID,20.4359,VALID,122,VALID,0,
2003-01-14, 01:22:00,VALID,919.246,VALID,0,VALID,97.8004,VALID,0.0849042,VALID,20.4391,VALID,122,VALID,0,
2003-01-14, 01:23:00,VALID,919.225,VALID,0,VALID,97.6885,VALID,0.0169808,VALID,20.4528,VALID,122,VALID,0,
2003-01-14, 01:24:00,VALID,919.221,VALID,0,VALID,97.6224,VALID,-0.0679233,VALID,20.4598,VALID,122,VALID,0,
2003-01-14, 01:25:00,VALID,919.204,VALID,0,VALID,97.6046,VALID,-0.0169808,VALID,20.4827,VALID,122,VALID,0,
2003-01-14, 01:26:00,VALID,919.205,VALID,0,VALID,97.5384,VALID,-0.0169808,VALID,20.4927,VALID,122,VALID,0,
2003-01-14, 01:27:00,VALID,919.199,VALID,0,VALID,97.5079,VALID,-0.0339617,VALID,20.5061,VALID,122,VALID,0,
2003-01-14, 01:28:00,VALID,919.195,VALID,0,VALID,97.5143,VALID,0,VALID,20.5282,VALID,122,VALID,0,
2003-01-14, 01:29:00,VALID,919.187,VALID,0,VALID,97.5677,VALID,-0.0339617,VALID,20.5511,VALID,122,VALID,0.00105574,
2003-01-14, 01:30:00,VALID,919.171,VALID,0,VALID,97.5359,VALID,0,VALID,20.5702,VALID,122,VALID,0,
2003-01-14, 01:31:00,VALID,919.17,VALID,0,VALID,97.4837,VALID,-0.0509425,VALID,20.5797,VALID,122,VALID,0.000822368,
2003-01-14, 01:32:00,VALID,919.168,VALID,0,VALID,97.4342,VALID,-0.0509425,VALID,20.5991,VALID,124,VALID,0.0818142,
2003-01-14, 01:33:00,VALID,919.164,VALID,0,VALID,97.4075,VALID,-0.0509425,VALID,20.602,VALID,124,VALID,0.097973,
2003-01-14, 01:34:00,VALID,919.162,VALID,0,VALID,97.3502,VALID,-0.0339617,VALID,20.6219,VALID,124,VALID,0.268092,
2003-01-14, 01:35:00,VALID,919.153,VALID,0,VALID,97.2676,VALID,-0.0169808,VALID,20.6254,VALID,132,VALID,0.255068,
2003-01-14, 01:36:00,VALID,919.15,VALID,0,VALID,97.2104,VALID,-0.0509425,VALID,20.5923,VALID,135,VALID,0.432292,
2003-01-14, 01:37:00,VALID,919.134,VALID,0,VALID,97.2434,VALID,-0.0169808,VALID,20.5829,VALID,135,VALID,0.546453,
2003-01-14, 01:38:00,VALID,919.121,VALID,0,VALID,97.2917,VALID,-0.0169808,VALID,20.5498,VALID,126,VALID,0.392736,
2003-01-14, 01:39:00,VALID,919.102,VALID,0,VALID,97.3858,VALID,-0.0169808,VALID,20.5506,VALID,125,VALID,0.297098,
2003-01-14, 01:40:00,VALID,919.076,VALID,0,VALID,97.4431,VALID,-0.0169808,VALID,20.5344,VALID,120,VALID,0.226563,
2003-01-14, 01:41:00,VALID,919.066,VALID,0,VALID,97.5397,VALID,-0.0339617,VALID,20.5083,VALID,128,VALID,0.492588,
2003-01-14, 01:42:00,VALID,919.055,VALID,0,VALID,97.574,VALID,-0.0169808,VALID,20.4792,VALID,104,VALID,0.508929,
2003-01-14, 01:43:00,VALID,919.031,VALID,0,VALID,97.747,VALID,-0.0169808,VALID,20.4698,VALID,60,VALID,0.142103,
2003-01-14, 01:44:00,VALID,919.008,VALID,0,VALID,97.8423,VALID,-0.0169808,VALID,20.4536,VALID,93,VALID,0.351997,
2003-01-14, 01:45:00,VALID,918.986,VALID,0,VALID,97.8144,VALID,-0.0169808,VALID,20.4315,VALID,108,VALID,0.662109,
2003-01-14, 01:46:00,VALID,918.963,VALID,0,VALID,97.897,VALID,0,VALID,20.3984,VALID,112,VALID,0.226362,
2003-01-14, 01:47:00,VALID,918.949,VALID,0,VALID,98.0115,VALID,-0.0169808,VALID,20.3793,VALID,112,VALID,0.39363,
2003-01-14, 01:48:00,VALID,918.927,VALID,0,VALID,98.1653,VALID,0,VALID,20.3761,VALID,137,VALID,0.206163,
2003-01-14, 01:49:00,VALID,918.91,VALID,0,VALID,98.2836,VALID,-0.0169808,VALID,20.3795,VALID,148,VALID,0.477407,
2003-01-14, 01:50:00,VALID,918.901,VALID,0,VALID,98.2531,VALID,-0.0339617,VALID,20.3532,VALID,153,VALID,0.607936,
2003-01-14, 01:51:00,VALID,918.87,VALID,0,VALID,98.3179,VALID,-0.0169808,VALID,20.3303,VALID,152,VALID,0.526727,
2003-01-14, 01:52:00,VALID,918.861,VALID,0,VALID,98.4044,VALID,-0.0169808,VALID,20.3311,VALID,163,VALID,0.338108,
2003-01-14, 01:53:00,VALID,918.842,VALID,0,VALID,98.4934,VALID,-0.0339617,VALID,20.3306,VALID,166,VALID,0.257179,
2003-01-14, 01:54:00,VALID,918.825,VALID,0,VALID,98.5544,VALID,0,VALID,20.347,VALID,168,VALID,0.520559,
2003-01-14, 01:55:00,VALID,918.797,VALID,0,VALID,98.5646,VALID,-0.0169808,VALID,20.3333,VALID,165,VALID,0.538851,
2003-01-14, 01:56:00,VALID,918.769,VALID,0,VALID,98.5837,VALID,0,VALID,20.3241,VALID,165,VALID,0.518029,
2003-01-14, 01:57:00,VALID,918.755,VALID,0,VALID,98.6256,VALID,0,VALID,20.3306,VALID,170,VALID,0.286951,
2003-01-14, 01:58:00,VALID,918.729,VALID,0,VALID,98.6269,VALID,0.0169808,VALID,20.3238,VALID,160,VALID,0.405828,
2003-01-14, 01:59:00,VALID,918.713,VALID,0,VALID,98.6803,VALID,0,VALID,20.3338,VALID,159,VALID,0.198214,
2003-01-14, 02:00:00,VALID,918.697,VALID,0,VALID,98.6562,VALID,0,VALID,20.3338,VALID,155,VALID,0.758868,
2003-01-14, 02:01:00,VALID,918.688,VALID,0,VALID,98.6295,VALID,0,VALID,20.3278,VALID,141,VALID,0.604968,
2003-01-14, 02:02:00,VALID,918.689,VALID,0,VALID,98.6447,VALID,0,VALID,20.3144,VALID,145,VALID,0.637946,
2003-01-14, 02:03:00,VALID,918.671,VALID,0,VALID,98.6358,VALID,-0.0169808,VALID,20.2958,VALID,131,VALID,0.615921,
2003-01-14, 02:04:00,VALID,918.663,VALID,0,VALID,98.6676,VALID,0,VALID,20.2724,VALID,133,VALID,0.394314,
2003-01-14, 02:05:00,VALID,918.665,VALID,0,VALID,98.7032,VALID,0,VALID,20.2759,VALID,108,VALID,0.594141,
2003-01-14, 02:06:00,VALID,918.656,VALID,0,VALID,98.7465,VALID,0,VALID,20.2732,VALID,125,VALID,0.472356,
2003-01-14, 02:07:00,VALID,918.643,VALID,0,VALID,98.7668,VALID,-0.0339617,VALID,20.2597,VALID,141,VALID,0.464944,
2003-01-14, 02:08:00,VALID,918.623,VALID,0,VALID,98.8024,VALID,0,VALID,20.2562,VALID,104,VALID,0.48546,
2003-01-14, 02:09:00,VALID,918.625,VALID,0,VALID,98.8062,VALID,0,VALID,20.2602,VALID,113,VALID,0.0878378,
2003-01-14, 02:10:00,VALID,918.609,VALID,0,VALID,98.8673,VALID,-0.0169808,VALID,20.25,VALID,113,VALID,0,
2003-01-14, 02:11:00,VALID,918.594,VALID,0,VALID,98.8838,VALID,0,VALID,20.2525,VALID,113,VALID,0.160979,
2003-01-14, 02:12:00,VALID,918.594,VALID,0,VALID,98.8469,VALID,0,VALID,20.2498,VALID,106,VALID,0.389974,
2003-01-14, 02:13:00,VALID,918.58,VALID,0,VALID,98.8584,VALID,-0.0169808,VALID,20.2438,VALID,108,VALID,0.301309,
2003-01-14, 02:14:00,VALID,918.575,VALID,0,VALID,98.899,VALID,0,VALID,20.2277,VALID,112,VALID,0.0760691,
2003-01-14, 02:15:00,VALID,918.547,VALID,0,VALID,98.927,VALID,-0.0169808,VALID,20.2341,VALID,112,VALID,0.0874155,
2003-01-14, 02:16:00,VALID,918.535,VALID,0,VALID,98.9461,VALID,-0.0169808,VALID,20.2242,VALID,112,VALID,0.203526,
2003-01-14, 02:17:00,VALID,918.529,VALID,0,VALID,98.9614,VALID,-0.0169808,VALID,20.2406,VALID,112,VALID,0.00295608,
2003-01-14, 02:18:00,VALID,918.515,VALID,0,VALID,98.9817,VALID,-0.0509425,VALID,20.2441,VALID,112,VALID,0.13239,
2003-01-14, 02:19:00,VALID,918.514,VALID,0,VALID,98.955,VALID,0,VALID,20.2446,VALID,133,VALID,0.454688,
2003-01-14, 02:20:00,VALID,918.499,VALID,0,VALID,98.9448,VALID,-0.0339617,VALID,20.2376,VALID,146,VALID,0.427998,
2003-01-14, 02:21:00,VALID,918.501,VALID,0,VALID,98.9296,VALID,-0.0339617,VALID,20.2341,VALID,154,VALID,0.684495,
2003-01-14, 02:22:00,VALID,918.502,VALID,0,VALID,98.913,VALID,-0.0339617,VALID,20.2309,VALID,144,VALID,0.540402,
2003-01-14, 02:23:00,VALID,918.487,VALID,0,VALID,98.8825,VALID,-0.0169808,VALID,20.218,VALID,163,VALID,0.585938,
2003-01-14, 02:24:00,VALID,918.466,VALID,0,VALID,98.8673,VALID,-0.0849042,VALID,20.2118,VALID,145,VALID,0.589193,
2003-01-14, 02:25:00,VALID,918.441,VALID,0,VALID,98.8329,VALID,-0.0339617,VALID,20.1951,VALID,134,VALID,0.380078,
2003-01-14, 02:26:00,VALID,918.428,VALID,0,VALID,98.8037,VALID,0,VALID,20.2018,VALID,129,VALID,0.43109,
2003-01-14, 02:27:00,VALID,918.399,VALID,0,VALID,98.7693,VALID,-0.0339617,VALID,20.1886,VALID,132,VALID,0.528245,
2003-01-14, 02:28:00,VALID,918.373,VALID,0,VALID,98.7541,VALID,-0.0339617,VALID,20.1757,VALID,139,VALID,0.518012,
2003-01-14, 02:29:00,VALID,918.378,VALID,0,VALID,98.7426,VALID,-0.0169808,VALID,20.1561,VALID,145,VALID,0.378167,
2003-01-14, 02:30:00,VALID,918.352,VALID,0,VALID,98.7083,VALID,0.0169808,VALID,20.1426,VALID,139,VALID,0.383224,
2003-01-14, 02:31:00,VALID,918.353,VALID,0,VALID,98.7032,VALID,-0.0169808,VALID,20.1434,VALID,145,VALID,0.411184,
2003-01-14, 02:32:00,VALID,918.345,VALID,0,VALID,98.7058,VALID,0,VALID,20.1342,VALID,147,VALID,0.0434028,
2003-01-14, 02:33:00,VALID,918.348,VALID,0,VALID,98.7159,VALID,-0.0169808,VALID,20.1106,VALID,147,VALID,0,
2003-01-14, 02:34:00,VALID,918.338,VALID,0,VALID,98.6918,VALID,-0.0339617,VALID,20.1213,VALID,147,VALID,0.170641,
2003-01-14, 02:35:00,VALID,918.328,VALID,0,VALID,98.6702,VALID,-0.0169808,VALID,20.0984,VALID,146,VALID,0.144848,
2003-01-14, 02:36:00,VALID,918.342,VALID,0,VALID,98.6752,VALID,0,VALID,20.085,VALID,146,VALID,0.0875401,
2003-01-14, 02:37:00,VALID,918.336,VALID,0,VALID,98.6689,VALID,0,VALID,20.0827,VALID,146,VALID,0.0331503,
2003-01-14, 02:38:00,VALID,918.331,VALID,0,VALID,98.6524,VALID,-0.0339617,VALID,20.076,VALID,146,VALID,0.0491976,
2003-01-14, 02:39:00,VALID,918.335,VALID,0,VALID,98.6218,VALID,-0.0339617,VALID,20.0634,VALID,145,VALID,0.00446429,
2003-01-14, 02:40:00,VALID,918.307,VALID,0,VALID,98.5888,VALID,-0.0509425,VALID,20.0343,VALID,145,VALID,0,
2003-01-14, 02:41:00,VALID,918.299,VALID,0,VALID,98.5239,VALID,-0.0339617,VALID,20.0146,VALID,146,VALID,0,
2003-01-14, 02:42:00,VALID,918.292,VALID,0,VALID,98.4489,VALID,0,VALID,19.9885,VALID,146,VALID,0,
2003-01-14, 02:43:00,VALID,918.277,VALID,0,VALID,98.5214,VALID,0.0169808,VALID,19.9952,VALID,146,VALID,0,
2003-01-14, 02:44:00,VALID,918.25,VALID,0,VALID,98.59,VALID,-0.0509425,VALID,20.0246,VALID,146,VALID,0,
2003-01-14, 02:45:00,VALID,918.239,VALID,0,VALID,98.6129,VALID,-0.0169808,VALID,20.0273,VALID,146,VALID,0,
2003-01-14, 02:46:00,VALID,918.223,VALID,0,VALID,98.6155,VALID,0,VALID,20.0276,VALID,146,VALID,0,
2003-01-14, 02:47:00,VALID,918.205,VALID,0,VALID,98.6066,VALID,0,VALID,20.0534,VALID,146,VALID,0,
2003-01-14, 02:48:00,VALID,918.203,VALID,0,VALID,98.5989,VALID,-0.0169808,VALID,20.0499,VALID,145,VALID,0,
2003-01-14, 02:49:00,VALID,918.169,VALID,0,VALID,98.4616,VALID,-0.0339617,VALID,20.0208,VALID,102,VALID,0.343539,
2003-01-14, 02:50:00,VALID,918.148,VALID,0,VALID,98.3701,VALID,0,VALID,19.9915,VALID,46,VALID,0.628701,
2003-01-14, 02:51:00,VALID,918.133,VALID,0,VALID,98.3675,VALID,0,VALID,19.995,VALID,38,VALID,0.377262,
2003-01-14, 02:52:00,VALID,918.123,VALID,0,VALID,98.2836,VALID,0,VALID,19.9856,VALID,34,VALID,0.111762,
2003-01-14, 02:53:00,VALID,918.125,VALID,0,VALID,98.2556,VALID,-0.0169808,VALID,19.9885,VALID,34,VALID,0.00760135,
2003-01-14, 02:54:00,VALID,918.115,VALID,0,VALID,98.3357,VALID,-0.0169808,VALID,20.0082,VALID,30,VALID,0.00102796,
2003-01-14, 02:55:00,VALID,918.118,VALID,0,VALID,98.3891,VALID,0,VALID,20.0373,VALID,22,VALID,0,
2003-01-14, 02:56:00,VALID,918.131,VALID,0,VALID,98.4209,VALID,-0.0169808,VALID,20.0499,VALID,22,VALID,0.0010016,
2003-01-14, 02:57:00,VALID,918.133,VALID,0,VALID,98.4731,VALID,0,VALID,20.0795,VALID,22,VALID,0,
2003-01-14, 02:58:00,VALID,918.13,VALID,0,VALID,98.4883,VALID,0,VALID,20.0987,VALID,22,VALID,0,
2003-01-14, 02:59:00,VALID,918.119,VALID,0,VALID,98.5074,VALID,-0.0169808,VALID,20.1315,VALID,22,VALID,0,
2003-01-14, 03:00:00,VALID,918.114,VALID,0,VALID,98.4947,VALID,-0.0169808,VALID,20.1474,VALID,22,VALID,0.159417,
2003-01-14, 03:01:00,VALID,918.09,VALID,0,VALID,98.3993,VALID,0.0169808,VALID,20.1571,VALID,22,VALID,0.171875,
2003-01-14, 03:02:00,VALID,918.068,VALID,0,VALID,98.2938,VALID,0,VALID,20.1471,VALID,22,VALID,0.228348,
2003-01-14, 03:03:00,VALID,918.051,VALID,0,VALID,98.2531,VALID,-0.0169808,VALID,20.1439,VALID,33,VALID,0.3144,
2003-01-14, 03:04:00,VALID,918.046,VALID,0,VALID,98.323,VALID,-0.0169808,VALID,20.1372,VALID,44,VALID,0.0967882,
2003-01-14, 03:05:00,VALID,918.044,VALID,0,VALID,98.3637,VALID,-0.0169808,VALID,20.1404,VALID,44,VALID,0.0953125,
2003-01-14, 03:06:00,VALID,918.048,VALID,0,VALID,98.3866,VALID,-0.0339617,VALID,20.163,VALID,44,VALID,0.0677083,
2003-01-14, 03:07:00,VALID,918.061,VALID,0,VALID,98.3828,VALID,-0.0169808,VALID,20.1794,VALID,44,VALID,0,
2003-01-14, 03:08:00,VALID,918.058,VALID,0,VALID,98.3662,VALID,-0.0339617,VALID,20.1891,VALID,44,VALID,0,
2003-01-14, 03:09:00,VALID,918.059,VALID,0,VALID,98.2861,VALID,-0.0509425,VALID,20.1926,VALID,44,VALID,0.0363176,
2003-01-14, 03:10:00,VALID,918.048,VALID,0,VALID,98.2238,VALID,0,VALID,20.1792,VALID,44,VALID,0,
2003-01-14, 03:11:00,VALID,918.039,VALID,0,VALID,98.2493,VALID,0,VALID,20.1827,VALID,44,VALID,0,
2003-01-14, 03:12:00,VALID,918.02,VALID,0,VALID,98.2899,VALID,0,VALID,20.2023,VALID,41,VALID,0.0713976,
2003-01-14, 03:13:00,VALID,918.004,VALID,0,VALID,98.3154,VALID,0,VALID,20.2249,VALID,36,VALID,0.150338,
2003-01-14, 03:14:00,VALID,917.993,VALID,0,VALID,98.2607,VALID,0,VALID,20.2443,VALID,23,VALID,0.0696957,
2003-01-14, 03:15:00,VALID,917.996,VALID,0,VALID,98.2149,VALID,-0.0169808,VALID,20.2441,VALID,23,VALID,0.547086,
2003-01-14, 03:16:00,VALID,917.991,VALID,0,VALID,98.1717,VALID,0,VALID,20.2438,VALID,23,VALID,0.576522,
2003-01-14, 03:17:00,VALID,917.997,VALID,0,VALID,98.145,VALID,0,VALID,20.257,VALID,24,VALID,0.233742,
2003-01-14, 03:18:00,VALID,917.993,VALID,0,VALID,98.103,VALID,-0.0169808,VALID,20.2766,VALID,20,VALID,0.208404,
2003-01-14, 03:19:00,VALID,918.009,VALID,0,VALID,97.972,VALID,-0.0679233,VALID,20.2573,VALID,357,VALID,0.478571,
2003-01-14, 03:20:00,VALID,918.015,VALID,0,VALID,97.8805,VALID,0,VALID,20.2309,VALID,357,VALID,0.27935,
2003-01-14, 03:21:00,VALID,918.006,VALID,0,VALID,97.9034,VALID,-0.0339617,VALID,20.2408,VALID,358,VALID,0.242588,
2003-01-14, 03:22:00,VALID,918.004,VALID,0,VALID,97.8932,VALID,0,VALID,20.2438,VALID,358,VALID,0.164509,
2003-01-14, 03:23:00,VALID,918.003,VALID,0,VALID,97.8296,VALID,0,VALID,20.2441,VALID,358,VALID,0.0901605,
2003-01-14, 03:24:00,VALID,918,VALID,0,VALID,97.8296,VALID,-0.0169808,VALID,20.2247,VALID,357,VALID,0,
2003-01-14, 03:25:00,VALID,917.998,VALID,0,VALID,97.8792,VALID,-0.0169808,VALID,20.222,VALID,357,VALID,0,
2003-01-14, 03:26:00,VALID,918.006,VALID,0,VALID,97.9542,VALID,-0.0169808,VALID,20.2212,VALID,357,VALID,0,
2003-01-14, 03:27:00,VALID,918.01,VALID,0,VALID,97.9301,VALID,-0.0339617,VALID,20.2083,VALID,357,VALID,0.0170272,
2003-01-14, 03:28:00,VALID,918.001,VALID,0,VALID,97.9492,VALID,-0.0169808,VALID,20.2088,VALID,321,VALID,0.0876736,
2003-01-14, 03:29:00,VALID,917.991,VALID,0,VALID,97.9542,VALID,-0.0169808,VALID,20.1824,VALID,242,VALID,0.331926,
2003-01-14, 03:30:00,VALID,917.995,VALID,0,VALID,97.9911,VALID,-0.0339617,VALID,20.1829,VALID,242,VALID,0.389803,
2003-01-14, 03:31:00,VALID,917.988,VALID,0,VALID,98.0305,VALID,-0.0169808,VALID,20.1765,VALID,242,VALID,0.321135,
2003-01-14, 03:32:00,VALID,917.98,VALID,0,VALID,98.0967,VALID,-0.0509425,VALID,20.1635,VALID,242,VALID,0.00434028,
2003-01-14, 03:33:00,VALID,917.964,VALID,0,VALID,98.1564,VALID,-0.0339617,VALID,20.1732,VALID,242,VALID,0,
2003-01-14, 03:34:00,VALID,917.962,VALID,0,VALID,98.2264,VALID,-0.0339617,VALID,20.1695,VALID,242,VALID,0.00123355,
2003-01-14, 03:35:00,VALID,917.957,VALID,0,VALID,98.2632,VALID,-0.0339617,VALID,20.1921,VALID,251,VALID,0.105574,
2003-01-14, 03:36:00,VALID,917.948,VALID,0,VALID,98.2632,VALID,-0.0169808,VALID,20.1986,VALID,304,VALID,0.305889,